[[{"header":{"parameterUnit":"m.s-1","parameterCategory":1,"la1":30.2992,"la2":30.254,"lo1":-89.0895,"lo2":-89.0443,"dy":0.0025,"dx":0.0025,"nx":19,"ny":19,"refTime":"2026-03-17T21:00:00:Z","depth":0,"parameterNumber":2,"parameterNumberName":"U-component_of_WINDS"},"data":[0,0,0,-0.1886,-0.1886,-0.1911,-0.1911,-0.1948,-0.1948,0,0,0,0,0,0,0,0,0,0,0,-0.1881,-0.1882,-0.1886,-0.1886,-0.1911,-0.1911,-0.1948,-0.1948,0,0,0,0,0,0,0,0,0,0,0,-0.1881,-0.1882,-0.1882,-0.1887,-0.1911,-0.1911,-0.1948,-0.1928,0,0,0,0,0,0,0,0,0,0,-0.1903,-0.1901,-0.1881,-0.1882,-0.1887,-0.1911,-0.1911,-0.1927,-0.1929,-0.194,0,-0.1948,0,-0.1949,-0.1951,-0.1951,0,0,0,-0.1885,-0.1899,-0.1903,-0.1882,-0.1887,-0.191,-0.1899,-0.1928,-0.1931,-0.1943,-0.1949,-0.195,-0.195,-0.1952,-0.1952,-0.2016,-0.2017,0,0,-0.1884,-0.1887,-0.1902,-0.1905,-0.19,-0.1898,-0.19,-0.1929,-0.1937,-0.1949,-0.1951,-0.195,-0.1952,-0.1952,-0.2016,-0.2016,0,0,0,-0.1881,-0.1886,-0.189,-0.1904,-0.1908,-0.1899,-0.1901,-0.1936,-0.1936,-0.1951,-0.1951,-0.1952,-0.1953,-0.2015,-0.2016,-0.2039,0,0,0,-0.188,-0.1885,-0.1889,-0.1892,-0.1907,-0.1922,-0.1907,-0.1934,-0.1937,-0.195,-0.1952,-0.1953,-0.2015,-0.2016,-0.2037,-0.205,0,0,0,-0.1879,-0.1885,-0.1889,-0.1892,-0.1902,-0.1921,-0.1923,-0.1935,-0.1937,-0.1951,-0.1953,-0.2015,-0.2016,-0.2036,-0.2048,-0.2069,0,0,0,-0.1879,-0.1908,-0.1889,-0.1922,-0.1902,-0.1934,-0.1923,-0.1947,-0.1962,-0.1952,-0.2015,-0.2016,-0.2036,-0.2046,-0.2068,-0.209,-0.2098,0,0,-0.1918,-0.1913,-0.1932,-0.1916,-0.1952,-0.193,-0.1971,-0.1981,-0.1979,-0.2004,-0.2006,-0.2038,-0.2047,-0.2069,-0.2143,-0.215,0,0,0,-0.1946,-0.196,-0.1969,-0.1983,-0.1991,-0.2,-0.2003,-0.2008,-0.2029,-0.1992,-0.2051,-0.2056,-0.2069,-0.2079,-0.2085,-0.2097,-0.202,-0.202,-0.202,-0.2008,-0.2004,-0.2036,-0.2035,-0.2049,-0.2052,-0.2064,-0.2071,-0.2062,-0.2076,-0.2084,-0.213,-0.2142,-0.2146,-0.2158,-0.2094,-0.2094,-0.2094,-0.2094,-0.2066,-0.2087,-0.2075,-0.2102,-0.2098,-0.2121,-0.2126,-0.212,-0.2142,-0.2123,-0.2134,-0.2115,-0.2154,-0.2165,-0.2095,-0.2095,-0.2095,-0.2095,-0.2095,-0.2108,-0.2117,-0.2121,-0.2142,-0.2159,-0.2157,-0.2179,-0.2174,-0.217,-0.2181,-0.219,-0.219,-0.2191,-0.2185,-0.2185,-0.2186,-0.2186,-0.2186,-0.2186,-0.215,-0.2154,-0.2173,-0.2185,-0.2194,-0.2206,-0.221,-0.222,-0.2229,-0.2225,-0.2225,-0.2217,-0.2157,-0.2144,-0.2189,-0.2188,-0.2188,-0.2188,-0.2187,-0.2215,-0.22,-0.2228,-0.2238,-0.2252,-0.2271,-0.2264,-0.2284,-0.2291,-0.2303,-0.2292,-0.2248,-0.2243,-0.2239,-0.2228,-0.2291,-0.2291,-0.2291,-0.2291,-0.2252,-0.2248,-0.2277,-0.2293,-0.2308,-0.2305,-0.234,-0.2345,-0.2347,-0.2352,-0.2341,-0.2326,-0.2321,-0.2319,-0.2312,-0.2302,-0.2383,-0.2383,-0.2383,-0.2292,-0.229,-0.232,-0.2321,-0.2333,-0.2343,-0.2376,-0.2396,-0.2396,-0.2387,-0.2356,-0.2352,-0.2327,-0.2318,-0.231,-0.23,-0.2281,0,0]},{"header":{"parameterUnit":"m.s-1","parameterCategory":1,"la1":30.2992,"la2":30.254,"lo1":-89.0895,"lo2":-89.0443,"dy":0.0025,"dx":0.0025,"nx":19,"ny":19,"refTime":"2026-03-17T21:00:00:Z","depth":0,"parameterNumber":3,"parameterNumberName":"V-component_of_WINDS"},"data":[0,0,0,2.9038,2.9039,2.9046,2.9046,2.9061,2.9061,0,0,0,0,0,0,0,0,0,0,0,2.9042,2.9042,2.9038,2.9039,2.9046,2.9046,2.9061,2.9061,0,0,0,0,0,0,0,0,0,0,0,2.9042,2.9042,2.9043,2.9039,2.9046,2.9046,2.9061,2.9053,0,0,0,0,0,0,0,0,0,0,2.9044,2.9055,2.9042,2.9043,2.9039,2.9046,2.9046,2.9052,2.9053,2.9061,0,2.9071,0,2.9067,2.9063,2.9063,0,0,0,2.9034,2.9054,2.905,2.9043,2.9039,2.9046,2.9041,2.9053,2.9054,2.9062,2.9072,2.9072,2.9067,2.9063,2.9063,2.9126,2.9126,0,0,2.9033,2.9046,2.905,2.9051,2.9053,2.9041,2.9042,2.9053,2.9064,2.9072,2.9072,2.9067,2.9063,2.9063,2.9125,2.9126,0,0,0,2.9035,2.9046,2.9042,2.9051,2.9052,2.9041,2.9042,2.9063,2.9061,2.9072,2.9067,2.9063,2.9064,2.9125,2.9126,2.9163,0,0,0,2.9035,2.9047,2.9042,2.905,2.9052,2.9058,2.9051,2.906,2.9061,2.9067,2.9063,2.9064,2.9124,2.9125,2.916,2.9178,0,0,0,2.9039,2.9048,2.9051,2.9051,2.9055,2.9058,2.9056,2.906,2.9058,2.9063,2.9064,2.9124,2.9125,2.9158,2.9174,2.9196,0,0,0,2.9048,2.9086,2.9052,2.9092,2.9055,2.9082,2.9056,2.9075,2.9084,2.9063,2.9124,2.9125,2.9158,2.9172,2.9194,2.9215,2.9225,0,0,2.9102,2.9093,2.9115,2.9085,2.9121,2.908,2.912,2.9116,2.9104,2.9118,2.912,2.9161,2.9174,2.9195,2.9284,2.9293,0,0,0,2.9136,2.9152,2.9159,2.9168,2.9166,2.9164,2.9152,2.9149,2.9161,2.9115,2.9175,2.9183,2.9194,2.9204,2.9211,2.9219,2.9131,2.9131,2.9131,2.9232,2.9214,2.9249,2.9231,2.924,2.9226,2.9231,2.9225,2.9206,2.922,2.9224,2.928,2.9291,2.9297,2.9305,2.9235,2.9235,2.9235,2.9235,2.9308,2.9326,2.9298,2.9321,2.9301,2.932,2.9306,2.9291,2.9304,2.9277,2.9286,2.9256,2.9307,2.9313,2.9238,2.9238,2.9237,2.9237,2.9237,2.9367,2.9372,2.9369,2.9378,2.9386,2.9367,2.9379,2.9361,2.9344,2.9354,2.9354,2.9353,2.9348,2.9356,2.9356,2.9356,2.9356,2.9356,2.9356,2.9428,2.9423,2.9437,2.9435,2.9437,2.9437,2.9421,2.9421,2.9416,2.9402,2.9402,2.9378,2.9316,2.9299,2.9359,2.9359,2.9358,2.9358,2.9358,2.9509,2.9487,2.9508,2.9509,2.9504,2.9511,2.9488,2.9489,2.9487,2.9493,2.9467,2.9425,2.9413,2.9407,2.9393,2.9473,2.9473,2.9473,2.9473,2.9556,2.9549,2.9564,2.9567,2.9567,2.9548,2.9567,2.9554,2.9537,2.9533,2.952,2.95,2.9495,2.9486,2.9478,2.9464,2.9561,2.9561,2.9561,2.9603,2.9594,2.9616,2.96,2.9593,2.9587,2.9604,2.9606,2.9583,2.9564,2.9529,2.9526,2.9494,2.9485,2.9465,2.9453,2.9428,0,0]}]]